[Date Prev][Date Next][Thread Prev][Thread Next] - [Date Index][Thread Index][Author Index]
2 Line ISS Keps 12-2
- Subject: [sarex] 2 Line ISS Keps 12-2
- From: "Dave Larsen PhD" <doc@xxxxxxxxxxx>
- Date: Thu, 1 Dec 2005 18:32:54 -0800
ISS
1 25544U 98067A 05335.99080213 .00011513 00000-0 88193-4 0 8621
2 25544 051.6437 120.8878 0009160 353.0169 107.6631 15.72622902402090
----
Via the sarex mailing list at AMSAT.ORG courtesy of AMSAT-NA.
To unsubscribe, send "unsubscribe sarex" to Majordomo@amsat.org
AMSAT Home